Tracking 20715 objects as of 26-May-2020
HD Live streaming from Space Station
objects crossing your sky now

OPS 1948

Track OPS 1948 now!
OPS 1948 is classified as:


NORAD ID: 11558
Int'l Code: 1979-086A
Perigee: 30,505.7 km
Apogee: 41,145.0 km
Inclination: 6.0 °
Period: 1,437.7 minutes
Semi major axis: 42196 km
RCS: Unknown
Launch date: October 1, 1979
Source: United States (US)
Launch site: AIR FORCE EASTERN TEST RANGE (AFETR)
aabbcc
Your satellite tracking list
Your tracking list is empty




NASA's NSSDC Master Catalog

Two Line Element Set (TLE):
1 11558U 79086A   20146.70000424 +.00000018 +00000-0 +00000-0 0  9999
2 11558 006.0333 353.9777 1260700 056.0459 315.9560 01.00159140004029
Source of the keplerian elements: McCants